{"data":{"norad_id":48379,"intl_designator":"2021-038AC","name":"STARLINK-2612","alt_names":[],"object_type":"PAYLOAD","status":"ACTIVE","operator":null,"country":"US","launch_date":"2021-05-04","launch_site_code":"AFETR","launch_vehicle":null,"mission":null,"orbit_class":"UNKNOWN","rcs_meters":null,"size_class":null,"mass_kg":null,"dimensions":null,"purposes":["comms"],"wikipedia_slug":null,"has_3d_model":false,"image_url":null,"decayed_at":null,"tle_current":{"epoch":"2026-05-24T23:27:03.217248Z","epoch_age_seconds":87509,"freshness":"FRESH","line1":"1 48379U 21038AC  26144.97712057  .00001499  00000+0  60043-4 0  9999","line2":"2 48379  53.1604 350.9360 0001152  75.3411 284.7718 15.31714869278940","mean_motion":15.31714869,"eccentricity":0.0001152,"inclination_deg":53.1604,"raan_deg":350.936,"arg_perigee_deg":75.3411,"mean_anomaly_deg":284.7718,"bstar":6.0043e-5,"rev_number":27894,"period_min":94.012275335561,"perigee_km":469.90668634513,"apogee_km":471.48465739273,"semimajor_km":6848.8326718689,"source":"CELESTRAK","updated_at":"2026-05-25T13:38:16.689178Z"}}}